Terug naar catalogus

CZ-6A DEB

ActiefSSO
NORAD 54521·DEBRIS·🇨🇳 China

Gelanceerd Nov 11, 2022 vanaf Taiyuan Satellite Launch Center

Loading…

Volgende Passages (komende 24 uur)

TLE

VersSource: Space-Track

Epoch: Sep 14, 2026, 08:50 UTC

1 54521U 22151JZ  26257.36855229  .00000098  00000-0  92630-4 0  9991
2 54521  98.8969 225.2940 0137760 201.3819 158.1554 13.97459885195508

Volg CZ-6A DEB in realtime met AllMySat

Download on the App Store